| time (UTC) | temp F | wind direction | speed knots | gust knots | rain 1hr in | rain 24hr in | rain mn in | humidity % | barometer mb |
| 20260505095609 | 62 | 250 | 2.6 | 5.2 | 0.00 | 0.00 | 0.00 | 75 | 1001.3 |
| 20260505095106 | 62 | 137 | 1.7 | 4.3 | 0.00 | 0.00 | 0.00 | 74 | 1001.6 |
| 20260505094602 | 62 | 127 | 6.1 | 7.8 | 0.00 | 0.00 | 0.00 | 74 | 1001.3 |
| 20260505094058 | 62 | 191 | 1.7 | 3.5 | 0.00 | 0.00 | 0.00 | 75 | 1001.4 |
| 20260505093554 | 62 | 241 | 1.7 | 3.5 | 0.00 | 0.00 | 0.00 | 75 | 1001.3 |
| 20260505093052 | 62 | 284 | 0.9 | 2.6 | 0.00 | 0.00 | 0.00 | 74 | 1001.0 |
| 20260505092549 | 62 | 282 | 0.9 | 1.7 | 0.00 | 0.00 | 0.00 | 74 | 1001.0 |
| 20260505092048 | 62 | 243 | 0.0 | 2.6 | 0.00 | 0.00 | 0.00 | 74 | 1001.0 |
| 20260505091544 | 62 | 216 | 0.0 | 1.7 | 0.00 | 0.00 | 0.00 | 73 | 1000.8 |
| 20260505091043 | 62 | 131 | 0.0 | 1.7 | 0.00 | 0.00 | 0.00 | 73 | 1000.8 |
| 20260505090540 | 62 | 29 | 0.0 | 1.7 | 0.00 | 0.00 | 0.00 | 73 | 1001.1 |
| 20260505090038 | 62 | 304 | 0.0 | 1.7 | 0.00 | 0.00 | 0.00 | 72 | 1001.2 |
| 20260505085536 | 62 | 136 | 0.9 | 1.7 | 0.00 | 0.00 | 0.00 | 73 | 1001.1 |
| 20260505085034 | 62 | 161 | 1.7 | 1.7 | 0.00 | 0.00 | 0.00 | 72 | 1001.3 |
| 20260505084531 | 63 | 0 | 0.0 | 3.5 | 0.00 | 0.00 | 0.00 | 71 | 1001.1 |
| 20260505084029 | 62 | 144 | 1.7 | 1.7 | 0.00 | 0.00 | 0.00 | 71 | 1001.2 |
| 20260505083526 | 63 | 167 | 0.9 | 2.6 | 0.00 | 0.00 | 0.00 | 71 | 1001.0 |
| 20260505083023 | 63 | 168 | 0.9 | 2.6 | 0.00 | 0.00 | 0.00 | 71 | 1000.9 |
| 20260505082518 | 63 | 141 | 0.0 | 0.9 | 0.00 | 0.00 | 0.00 | 71 | 1001.0 |
| 20260505082015 | 63 | 134 | 1.7 | 2.6 | 0.00 | 0.00 | 0.00 | 70 | 1000.9 |
| 20260505081512 | 63 | 183 | 2.6 | 4.3 | 0.00 | 0.00 | 0.00 | 70 | 1001.0 |
| 20260505081009 | 63 | 224 | 0.0 | 2.6 | 0.00 | 0.00 | 0.00 | 70 | 1000.9 |
| 20260505080505 | 63 | 224 | 2.6 | 3.5 | 0.00 | 0.00 | 0.00 | 70 | 1000.8 |
| 20260505080001 | 63 | 128 | 0.0 | 4.3 | 0.00 | 0.00 | 0.00 | 70 | 1001.1 |
| 20260505075458 | 63 | 183 | 3.5 | 3.5 | 0.00 | 0.00 | 0.00 | 70 | 1001.1 |
| 20260505074955 | 63 | 227 | 1.7 | 7.0 | 0.00 | 0.00 | 0.00 | 69 | 1001.1 |
| 20260505074452 | 63 | 217 | 1.7 | 8.7 | 0.00 | 0.00 | 0.00 | 70 | 1001.2 |
| 20260505073949 | 63 | 209 | 4.3 | 6.1 | 0.00 | 0.00 | 0.00 | 69 | 1001.2 |
| 20260505073447 | 64 | 203 | 3.5 | 6.1 | 0.00 | 0.00 | 0.00 | 69 | 1001.2 |
| 20260505072944 | 63 | 205 | 3.5 | 4.3 | 0.00 | 0.00 | 0.00 | 69 | 1001.3 |
| 20260505072440 | 64 | 205 | 3.5 | 6.1 | 0.00 | 0.00 | 0.00 | 69 | 1001.2 |
| 20260505071936 | 64 | 191 | 4.3 | 7.8 | 0.00 | 0.00 | 0.00 | 68 | 1001.4 |
| 20260505071432 | 64 | 186 | 5.2 | 7.8 | 0.00 | 0.00 | 0.00 | 68 | 1001.2 |
| 20260505070931 | 64 | 196 | 4.3 | 7.8 | 0.00 | 0.00 | 0.00 | 68 | 1001.2 |
| 20260505070427 | 64 | 199 | 3.5 | 7.0 | 0.00 | 0.00 | 0.00 | 69 | 1001.1 |
| 20260505065922 | 64 | 166 | 3.5 | 7.8 | 0.00 | 0.00 | 0.00 | 69 | 1001.0 |
| 20260505065419 | 64 | 221 | 6.1 | 9.6 | 0.00 | 0.00 | 0.00 | 69 | 1001.1 |
| 20260505064916 | 63 | 204 | 5.2 | 10.4 | 0.00 | 0.00 | 0.00 | 69 | 1000.8 |
| 20260505064413 | 63 | 166 | 5.2 | 7.8 | 0.00 | 0.00 | 0.00 | 69 | 1001.0 |
| 20260505063912 | 63 | 225 | 4.3 | 12.2 | 0.00 | 0.00 | 0.00 | 69 | 1000.6 |
| 20260505063407 | 63 | 185 | 3.5 | 9.6 | 0.00 | 0.00 | 0.00 | 70 | 1000.9 |
| 20260505062904 | 63 | 186 | 3.5 | 7.0 | 0.00 | 0.00 | 0.00 | 70 | 1001.1 |
| 20260505062401 | 63 | 236 | 3.5 | 10.4 | 0.00 | 0.00 | 0.00 | 70 | 1001.0 |
| 20260505061858 | 63 | 141 | 4.3 | 9.6 | 0.00 | 0.00 | 0.00 | 70 | 1000.9 |
| 20260505061356 | 63 | 185 | 6.1 | 8.7 | 0.00 | 0.00 | 0.00 | 69 | 1000.9 |
| 20260505060854 | 63 | 157 | 1.7 | 5.2 | 0.00 | 0.00 | 0.00 | 70 | 1001.1 |
| 20260505060350 | 63 | 160 | 6.1 | 12.2 | 0.00 | 0.00 | 0.00 | 69 | 1001.2 |
| 20260505055846 | 63 | 216 | 2.6 | 8.7 | 0.00 | 0.00 | 0.00 | 70 | 1001.3 |
| 20260505055342 | 63 | 149 | 2.6 | 11.3 | 0.00 | 0.00 | 0.00 | 69 | 1001.5 |
| 20260505054840 | 63 | 167 | 3.5 | 7.8 | 0.00 | 0.00 | 0.00 | 70 | 1001.9 |
| 20260505054337 | 63 | 155 | 3.5 | 10.4 | 0.00 | 0.00 | 0.00 | 69 | 1001.7 |
| 20260505053835 | 63 | 178 | 2.6 | 7.0 | 0.00 | 0.00 | 0.00 | 69 | 1001.6 |
| 20260505053332 | 63 | 227 | 2.6 | 8.7 | 0.00 | 0.00 | 0.00 | 69 | 1001.5 |
| 20260505052828 | 63 | 196 | 3.5 | 6.1 | 0.00 | 0.00 | 0.00 | 69 | 1001.8 |
| 20260505052325 | 63 | 199 | 3.5 | 9.6 | 0.00 | 0.00 | 0.00 | 69 | 1001.7 |
| 20260505051822 | 63 | 186 | 6.1 | 6.1 | 0.00 | 0.00 | 0.00 | 69 | 1001.8 |
| 20260505051320 | 63 | 178 | 2.6 | 8.7 | 0.00 | 0.00 | 0.00 | 69 | 1002.0 |
| 20260505050818 | 64 | 153 | 3.5 | 7.8 | 0.00 | 0.00 | 0.00 | 69 | 1002.1 |
| 20260505050316 | 64 | 181 | 0.0 | 7.8 | 0.00 | 0.00 | 0.00 | 68 | 1002.2 |
| 20260505041746 | 65 | 161 | 0.9 | 5.2 | 0.00 | 0.00 | 0.00 | 66 | 1002.5 |
| 20260505041243 | 64 | 168 | 1.7 | 5.2 | 0.00 | 0.00 | 0.00 | 66 | 1002.5 |
| 20260505040740 | 64 | 223 | 1.7 | 4.3 | 0.00 | 0.00 | 0.00 | 66 | 1002.3 |
| 20260505040238 | 65 | 180 | 2.6 | 7.0 | 0.00 | 0.00 | 0.00 | 65 | 1002.7 |
| 20260505035735 | 65 | 288 | 1.7 | 3.5 | 0.00 | 0.00 | 0.00 | 66 | 1002.6 |
| 20260505035230 | 65 | 207 | 5.2 | 7.0 | 0.00 | 0.00 | 0.00 | 65 | 1002.6 |
| 20260505034728 | 65 | 153 | 5.2 | 5.2 | 0.00 | 0.00 | 0.00 | 65 | 1002.6 |
| 20260505034224 | 65 | 219 | 3.5 | 6.1 | 0.00 | 0.00 | 0.00 | 65 | 1002.7 |
| 20260505033721 | 65 | 173 | 4.3 | 4.3 | 0.00 | 0.00 | 0.00 | 65 | 1003.0 |
| 20260505033219 | 65 | 150 | 0.9 | 7.8 | 0.00 | 0.00 | 0.00 | 64 | 1002.9 |
| 20260505032717 | 65 | 225 | 0.0 | 4.3 | 0.00 | 0.00 | 0.00 | 64 | 1003.0 |
| 20260505032212 | 65 | 81 | 0.0 | 7.0 | 0.00 | 0.00 | 0.00 | 64 | 1002.9 |
| 20260505031710 | 66 | 214 | 3.5 | 4.3 | 0.00 | 0.00 | 0.00 | 63 | 1002.7 |
| 20260505031206 | 66 | 253 | 2.6 | 8.7 | 0.00 | 0.00 | 0.00 | 63 | 1002.9 |
| 20260505030703 | 66 | 186 | 2.6 | 3.5 | 0.00 | 0.00 | 0.00 | 62 | 1002.5 |
| 20260505030159 | 66 | 169 | 1.7 | 5.2 | 0.00 | 0.00 | 0.00 | 62 | 1002.6 |
| 20260505025655 | 66 | 153 | 7.0 | 7.8 | 0.00 | 0.00 | 0.00 | 61 | 1002.4 |
| 20260505025153 | 67 | 157 | 5.2 | 9.6 | 0.00 | 0.00 | 0.00 | 61 | 1002.3 |
| 20260505024651 | 66 | 163 | 7.8 | 9.6 | 0.00 | 0.00 | 0.00 | 61 | 1002.6 |
| 20260505024148 | 67 | 156 | 3.5 | 6.1 | 0.00 | 0.00 | 0.00 | 61 | 1002.3 |
| 20260505023645 | 67 | 148 | 4.3 | 7.0 | 0.00 | 0.00 | 0.00 | 61 | 1002.2 |
| 20260505023143 | 67 | 161 | 1.7 | 5.2 | 0.00 | 0.00 | 0.00 | 61 | 1002.4 |
| 20260505022640 | 67 | 163 | 2.6 | 6.1 | 0.00 | 0.00 | 0.00 | 60 | 1002.1 |
| 20260505022137 | 67 | 211 | 3.5 | 6.1 | 0.00 | 0.00 | 0.00 | 60 | 1002.2 |
| 20260505021633 | 67 | 151 | 1.7 | 9.6 | 0.00 | 0.00 | 0.00 | 60 | 1001.8 |
| 20260505021130 | 68 | 175 | 0.9 | 5.2 | 0.00 | 0.00 | 0.00 | 60 | 1002.1 |
| 20260505020626 | 68 | 162 | 4.3 | 7.8 | 0.00 | 0.00 | 0.00 | 59 | 1002.0 |
| 20260505020122 | 68 | 163 | 3.5 | 7.8 | 0.00 | 0.00 | 0.00 | 58 | 1002.1 |
| 20260505015619 | 68 | 172 | 1.7 | 6.1 | 0.00 | 0.00 | 0.00 | 58 | 1001.9 |
| 20260505015116 | 68 | 144 | 1.7 | 3.5 | 0.00 | 0.00 | 0.00 | 58 | 1001.8 |
| 20260505014613 | 69 | 223 | 1.7 | 7.0 | 0.00 | 0.00 | 0.00 | 57 | 1001.8 |
| 20260505014110 | 69 | 191 | 2.6 | 6.1 | 0.00 | 0.00 | 0.00 | 56 | 1001.5 |
| 20260505013607 | 69 | 235 | 1.7 | 4.3 | 0.00 | 0.00 | 0.00 | 56 | 1001.3 |
| 20260505013104 | 69 | 147 | 4.3 | 5.2 | 0.00 | 0.00 | 0.00 | 56 | 1001.3 |
| 20260505012602 | 70 | 96 | 1.7 | 9.6 | 0.00 | 0.00 | 0.00 | 55 | 1001.3 |
| 20260505012059 | 70 | 167 | 5.2 | 6.1 | 0.00 | 0.00 | 0.00 | 55 | 1001.2 |
| 20260505011554 | 70 | 163 | 1.7 | 9.6 | 0.00 | 0.00 | 0.00 | 54 | 1001.4 |
| 20260505011052 | 71 | 161 | 1.7 | 4.3 | 0.00 | 0.00 | 0.00 | 53 | 1001.1 |
| 20260505010547 | 71 | 170 | 5.2 | 6.1 | 0.00 | 0.00 | 0.00 | 53 | 1001.5 |
| 20260505010044 | 71 | 211 | 4.3 | 4.3 | 0.00 | 0.00 | 0.00 | 52 | 1001.4 |
| 20260505005540 | 71 | 154 | 4.3 | 11.3 | 0.00 | 0.00 | 0.00 | 52 | 1001.6 |
| 20260505005038 | 72 | 161 | 2.6 | 8.7 | 0.00 | 0.00 | 0.00 | 51 | 1001.3 |
| 20260505004535 | 72 | 165 | 4.3 | 7.0 | 0.00 | 0.00 | 0.00 | 51 | 1001.0 |
| 20260505004031 | 72 | 161 | 4.3 | 7.0 | 0.00 | 0.00 | 0.00 | 50 | 1001.0 |
| 20260505003529 | 72 | 161 | 3.5 | 3.5 | 0.00 | 0.00 | 0.00 | 52 | 1001.0 |
| 20260505003026 | 73 | 174 | 7.0 | 7.8 | 0.00 | 0.00 | 0.00 | 50 | 1001.3 |
| 20260505002526 | 73 | 163 | 3.5 | 9.6 | 0.00 | 0.00 | 0.00 | 50 | 1001.2 |
| 20260505002026 | 73 | 169 | 4.3 | 7.8 | 0.00 | 0.00 | 0.00 | 50 | 1001.2 |
| 20260505001523 | 73 | 251 | 1.7 | 6.1 | 0.00 | 0.00 | 0.00 | 51 | 1001.1 |
| 20260505001020 | 74 | 187 | 3.5 | 10.4 | 0.00 | 0.00 | 0.00 | 49 | 1001.0 |
| 20260505000517 | 74 | 205 | 0.0 | 8.7 | 0.00 | 0.00 | 0.00 | 48 | 1001.0 |
| 20260505000015 | 74 | 183 | 7.8 | 9.6 | 0.00 | 0.00 | 0.00 | 48 | 1001.0 |
| 20260504235511 | 75 | 158 | 4.3 | 9.6 | 0.00 | 0.00 | 0.00 | 48 | 1001.0 |
| 20260504235007 | 75 | 164 | 3.5 | 6.1 | 0.00 | 0.00 | 0.00 | 47 | 1000.8 |
| 20260504234505 | 76 | 228 | 7.0 | 9.6 | 0.00 | 0.00 | 0.00 | 46 | 1001.0 |
| 20260504234002 | 76 | 118 | 2.6 | 7.8 | 0.00 | 0.00 | 0.00 | 47 | 1000.8 |
| 20260504233457 | 77 | 176 | 11.3 | 11.3 | 0.00 | 0.00 | 0.00 | 45 | 1000.8 |
| 20260504232954 | 77 | 186 | 3.5 | 4.3 | 0.00 | 0.00 | 0.00 | 44 | 1000.8 |
| 20260504232451 | 77 | 185 | 7.8 | 7.8 | 0.00 | 0.00 | 0.00 | 44 | 1000.9 |
| 20260504231949 | 77 | 155 | 3.5 | 9.6 | 0.00 | 0.00 | 0.00 | 46 | 1001.1 |
| 20260504231444 | 77 | 190 | 5.2 | 9.6 | 0.00 | 0.00 | 0.00 | 45 | 1001.1 |
| 20260504230941 | 77 | 161 | 5.2 | 7.8 | 0.00 | 0.00 | 0.00 | 43 | 1001.1 |
| 20260504230438 | 77 | 209 | 4.3 | 12.2 | 0.00 | 0.00 | 0.00 | 42 | 1001.2 |
| 20260504225937 | 77 | 229 | 6.1 | 14.8 | 0.00 | 0.00 | 0.00 | 42 | 1001.1 |
| 20260504225433 | 77 | 177 | 12.2 | 13.0 | 0.00 | 0.00 | 0.00 | 42 | 1001.2 |
| 20260504224930 | 77 | 188 | 6.1 | 8.7 | 0.00 | 0.00 | 0.00 | 45 | 1001.2 |
| 20260504224427 | 77 | 187 | 2.6 | 9.6 | 0.00 | 0.00 | 0.00 | 44 | 1001.1 |
| 20260504223924 | 76 | 237 | 7.8 | 11.3 | 0.00 | 0.00 | 0.00 | 44 | 1001.2 |
| 20260504223420 | 77 | 169 | 6.1 | 9.6 | 0.00 | 0.00 | 0.00 | 44 | 1001.4 |
| 20260504222916 | 77 | 127 | 5.2 | 8.7 | 0.00 | 0.00 | 0.00 | 44 | 1001.1 |
| 20260504222413 | 78 | 140 | 1.7 | 7.8 | 0.00 | 0.00 | 0.00 | 44 | 1001.1 |
| 20260504221911 | 78 | 153 | 7.8 | 9.6 | 0.00 | 0.00 | 0.00 | 44 | 1001.1 |
| 20260504221408 | 78 | 141 | 5.2 | 7.8 | 0.00 | 0.00 | 0.00 | 45 | 1001.1 |
| 20260504220905 | 78 | 193 | 6.1 | 13.0 | 0.00 | 0.00 | 0.00 | 44 | 1001.2 |
| 20260504220401 | 78 | 221 | 4.3 | 7.8 | 0.00 | 0.00 | 0.00 | 42 | 1001.3 |
| 20260504215859 | 78 | 222 | 7.8 | 9.6 | 0.00 | 0.00 | 0.00 | 44 | 1001.3 |
| 20260504215355 | 78 | 239 | 7.8 | 10.4 | 0.00 | 0.00 | 0.00 | 44 | 1001.5 |
| 20260504214851 | 77 | 184 | 7.8 | 13.9 | 0.00 | 0.00 | 0.00 | 45 | 1001.2 |
| 20260504214348 | 78 | 169 | 5.2 | 8.7 | 0.00 | 0.00 | 0.00 | 44 | 1001.4 |
| 20260504213845 | 78 | 216 | 11.3 | 14.8 | 0.00 | 0.00 | 0.00 | 42 | 1001.5 |
| 20260504213341 | 78 | 206 | 9.6 | 11.3 | 0.00 | 0.00 | 0.00 | 41 | 1001.4 |
| 20260504212838 | 78 | 213 | 9.6 | 16.5 | 0.00 | 0.00 | 0.00 | 42 | 1001.5 |
| 20260504212334 | 77 | 282 | 5.2 | 12.2 | 0.00 | 0.00 | 0.00 | 44 | 1001.5 |
| 20260504211832 | 77 | 183 | 5.2 | 12.2 | 0.00 | 0.00 | 0.00 | 44 | 1001.6 |
| 20260504211328 | 77 | 196 | 15.6 | 16.5 | 0.00 | 0.00 | 0.00 | 42 | 1001.5 |
| 20260504210826 | 78 | 171 | 3.5 | 8.7 | 0.00 | 0.00 | 0.00 | 43 | 1001.5 |
| 20260504210322 | 78 | 213 | 8.7 | 14.8 | 0.00 | 0.00 | 0.00 | 44 | 1001.5 |
| 20260504205820 | 78 | 225 | 6.1 | 14.8 | 0.00 | 0.00 | 0.00 | 43 | 1001.8 |
| 20260504205317 | 78 | 189 | 7.8 | 13.0 | 0.00 | 0.00 | 0.00 | 41 | 1001.8 |
| 20260504204815 | 78 | 224 | 7.8 | 11.3 | 0.00 | 0.00 | 0.00 | 44 | 1001.8 |
| 20260504204313 | 78 | 206 | 12.2 | 14.8 | 0.00 | 0.00 | 0.00 | 42 | 1001.8 |
| 20260504203813 | 78 | 217 | 13.0 | 14.8 | 0.00 | 0.00 | 0.00 | 43 | 1001.8 |
| 20260504203309 | 78 | 214 | 6.1 | 10.4 | 0.00 | 0.00 | 0.00 | 45 | 1002.0 |
| 20260504202804 | 78 | 171 | 8.7 | 12.2 | 0.00 | 0.00 | 0.00 | 45 | 1001.9 |
| 20260504202304 | 78 | 231 | 7.8 | 10.4 | 0.00 | 0.00 | 0.00 | 41 | 1002.1 |
| 20260504201758 | 78 | 202 | 8.7 | 11.3 | 0.00 | 0.00 | 0.00 | 43 | 1002.0 |
| 20260504201256 | 78 | 192 | 3.5 | 9.6 | 0.00 | 0.00 | 0.00 | 45 | 1002.0 |
| 20260504200753 | 78 | 244 | 7.0 | 12.2 | 0.00 | 0.00 | 0.00 | 43 | 1002.4 |
| 20260504200249 | 77 | 203 | 2.6 | 16.5 | 0.00 | 0.00 | 0.00 | 45 | 1002.4 |
| 20260504195746 | 78 | 169 | 10.4 | 13.9 | 0.00 | 0.00 | 0.00 | 41 | 1002.3 |
| 20260504195242 | 78 | 194 | 4.3 | 7.8 | 0.00 | 0.00 | 0.00 | 44 | 1002.3 |
| 20260504194739 | 78 | 261 | 7.0 | 11.3 | 0.00 | 0.00 | 0.00 | 41 | 1002.3 |
| 20260504194235 | 78 | 205 | 6.1 | 11.3 | 0.00 | 0.00 | 0.00 | 42 | 1002.3 |
| 20260504193731 | 77 | 184 | 5.2 | 11.3 | 0.00 | 0.00 | 0.00 | 45 | 1002.5 |
| 20260504193229 | 78 | 204 | 7.8 | 13.9 | 0.00 | 0.00 | 0.00 | 42 | 1002.5 |
| 20260504192727 | 78 | 171 | 4.3 | 9.6 | 0.00 | 0.00 | 0.00 | 42 | 1002.7 |
| 20260504192225 | 77 | 228 | 5.2 | 10.4 | 0.00 | 0.00 | 0.00 | 42 | 1002.6 |
| 20260504191724 | 77 | 176 | 7.8 | 9.6 | 0.00 | 0.00 | 0.00 | 44 | 1002.7 |
| 20260504191220 | 77 | 168 | 7.0 | 8.7 | 0.00 | 0.00 | 0.00 | 46 | 1002.6 |
| 20260504190715 | 77 | 236 | 10.4 | 13.9 | 0.00 | 0.00 | 0.00 | 44 | 1002.9 |
| 20260504190212 | 77 | 220 | 13.0 | 15.6 | 0.00 | 0.00 | 0.00 | 43 | 1002.9 |
| 20260504185709 | 77 | 221 | 8.7 | 11.3 | 0.00 | 0.00 | 0.00 | 43 | 1002.7 |
| 20260504185205 | 76 | 154 | 1.7 | 13.0 | 0.00 | 0.00 | 0.00 | 46 | 1002.9 |
| 20260504184701 | 76 | 208 | 5.2 | 13.0 | 0.00 | 0.00 | 0.00 | 43 | 1002.9 |
| 20260504184156 | 76 | 187 | 9.6 | 14.8 | 0.00 | 0.00 | 0.00 | 44 | 1003.1 |
| 20260504183653 | 76 | 156 | 7.0 | 15.6 | 0.00 | 0.00 | 0.00 | 44 | 1002.7 |
| 20260504183151 | 76 | 221 | 7.0 | 14.8 | 0.00 | 0.00 | 0.00 | 44 | 1003.0 |
| 20260504182648 | 76 | 181 | 4.3 | 15.6 | 0.00 | 0.00 | 0.00 | 44 | 1003.0 |
| 20260504182146 | 76 | 196 | 7.8 | 13.0 | 0.00 | 0.00 | 0.00 | 43 | 1003.1 |
| 20260504181643 | 75 | 232 | 6.1 | 15.6 | 0.00 | 0.00 | 0.00 | 43 | 1003.0 |
| 20260504181141 | 75 | 203 | 5.2 | 18.2 | 0.00 | 0.00 | 0.00 | 45 | 1002.9 |
| 20260504180640 | 75 | 217 | 8.7 | 13.9 | 0.00 | 0.00 | 0.00 | 47 | 1003.1 |
| 20260504180138 | 75 | 192 | 9.6 | 13.9 | 0.00 | 0.00 | 0.00 | 42 | 1003.0 |
| 20260504175635 | 76 | 244 | 5.2 | 7.8 | 0.00 | 0.00 | 0.00 | 45 | 1003.1 |
| 20260504175131 | 75 | 192 | 7.0 | 13.9 | 0.00 | 0.00 | 0.00 | 47 | 1003.2 |
| 20260504174630 | 75 | 202 | 7.8 | 14.8 | 0.00 | 0.00 | 0.00 | 47 | 1003.3 |
| 20260504174126 | 75 | 233 | 7.0 | 9.6 | 0.00 | 0.00 | 0.00 | 47 | 1003.3 |
| 20260504173623 | 74 | 204 | 4.3 | 15.6 | 0.00 | 0.00 | 0.00 | 44 | 1003.4 |
| 20260504173121 | 75 | 193 | 11.3 | 13.0 | 0.00 | 0.00 | 0.00 | 45 | 1003.3 |
| 20260504172617 | 75 | 221 | 4.3 | 11.3 | 0.00 | 0.00 | 0.00 | 48 | 1003.2 |
| 20260504172114 | 75 | 268 | 5.2 | 11.3 | 0.00 | 0.00 | 0.00 | 47 | 1003.2 |
| 20260504171610 | 75 | 167 | 7.8 | 13.0 | 0.00 | 0.00 | 0.00 | 47 | 1003.4 |
| 20260504171107 | 75 | 185 | 6.1 | 11.3 | 0.00 | 0.00 | 0.00 | 47 | 1003.5 |
| 20260504170602 | 74 | 249 | 8.7 | 11.3 | 0.00 | 0.00 | 0.00 | 48 | 1003.5 |
| 20260504150946 | 69 | 222 | 7.8 | 10.4 | 0.00 | 0.00 | 0.00 | 53 | 1004.8 |
| 20260504150443 | 68 | 203 | 8.7 | 12.2 | 0.00 | 0.00 | 0.00 | 53 | 1004.8 |
| 20260504140910 | 65 | 197 | 5.2 | 9.6 | 0.00 | 0.00 | 0.00 | 58 | 1005.2 |
| 20260504140406 | 65 | 200 | 6.1 | 11.3 | 0.00 | 0.00 | 0.00 | 57 | 1005.2 |
| 20260504130331 | 62 | 221 | 4.3 | 5.2 | 0.00 | 0.00 | 0.00 | 62 | 1005.3 |
| 20260504120254 | 58 | 217 | 2.6 | 3.5 | 0.00 | 0.00 | 0.00 | 71 | 1005.4 |
| 20260504110218 | 56 | 234 | 0.0 | 2.6 | 0.00 | 0.00 | 0.00 | 75 | 1005.2 |
| 20260504100142 | 56 | 248 | 0.0 | 1.7 | 0.00 | 0.00 | 0.00 | 75 | 1005.1 |